Temp
13 13 12 13 12 12 12 11 10 10 10 10 10 10 10 10 10 10 9 9 9 8 8 8 8 7 7 7 7 7 7 7 7 7 7 7 7 7 7 7 7 7 7
13 13 12 12 12 12 12 11 10 10 10 10 10 10 10 10 10 9 9 9 9 9 8 8 8 7 7 7 7 7 7 7 7 7 7 7 7 7 7 7 7 7 7
13 13 12 12 12 12 12 11 10 10 10 10 10 10 10 10 10 10 9 9 9 9 8 8 8 8 7 7 7 7 7 7 6 6 6 6 6 6 6 6 7 7 7
13 12 12 12 12 12 11 11 10 10 10 9 9 9 9 9 10 10 10 9 9 9 9 8 8 8 7 7 7 7 7 7 6 6 6 5 5 6 6 6 6 6 7
13 12 12 12 12 11 11 10 10 10 9 9 9 9 9 9 9 9 10 10 9 9 9 9 8 8 8 8 7 7 7 7 7 6 6 5 5 5 6 6 6 6 6
12 12 12 11 11 11 11 10 10 9 9 9 9 9 9 9 9 9 10 10 9 9 9 9 9 8 8 8 7 7 7 7 7 7 6 6 6 6 6 6 6 6 6
12 12 11 11 11 11 11 10 10 9 9 9 9 9 9 9 9 9 9 10 9 9 9 9 9 8 8 8 8 8 7 7 7 7 7 6 6 6 6 6 6 6 6
11 11 11 11 11 11 10 10 10 9 9 9 9 9 9 9 9 9 9 9 9 9 9 9 9 9 8 8 8 8 7 7 7 7 7 6 6 7 7 7 7 6 6
11 10 11 11 11 10 10 10 9 9 9 9 9 9 9 9 9 9 9 9 9 9 9 9 9 9 9 8 8 8 8 7 7 7 7 7 7 7 7 7 7 7 6
11 11 11 10 10 10 10 10 9 9 9 9 9 9 9 9 8 8 8 8 8 8 8 8 9 9 9 8 8 8 8 8 8 7 7 7 7 7 7 7 7 7 7
11 11 11 11 10 10 10 10 9 9 9 9 9 9 8 8 8 8 8 8 8 8 8 8 8 8 8 8 8 8 8 8 8 8 7 7 7 7 7 7 7 7 6
10 10 11 11 10 10 10 10 9 9 9 9 9 8 8 8 8 8 8 7 7 7 8 8 8 8 8 8 8 8 8 8 8 8 8 7 7 7 7 7 7 7 7
10 10 11 11 11 11 10 9 9 9 9 9 8 8 8 8 8 8 7 7 7 7 7 7 7 8 8 8 8 8 8 7 7 7 8 7 7 7 7 7 7 7 7
11 11 10 11 11 10 10 9 9 9 9 8 8 8 8 8 7 7 7 7 7 7 7 7 7 7 7 7 7 7 7 7 7 7 7 7 7 7 7 7 7 7 7
11 11 11 11 11 10 10 9 9 9 9 8 8 8 8 7 7 7 7 7 7 7 7 7 7 7 7 7 7 7 7 7 7 7 7 7 7 7 7 7 7 7 6
11 11 11 11 11 10 10 10 9 9 9 8 8 8 8 7 7 7 7 7 7 7 7 7 7 6 6 6 6 6 7 7 7 6 6 6 6 6 6 6 6 6 6
11 10 10 10 11 10 10 9 9 9 9 8 8 8 8 7 7 7 7 7 7 7 7 7 7 7 7 7 7 7 6 7 6 6 6 6 6 6 6 6 6 6 6
11 11 10 10 10 10 10 10 9 9 9 8 8 8 8 8 8 8 8 7 7 7 7 7 7 7 7 7 7 6 6 7 7 6 6 6 6 6 6 6 6 6 5
11 11 10 10 10 10 10 9 9 8 8 8 8 8 8 8 8 8 8 8 7 7 7 7 7 7 7 7 7 6 6 7 7 6 6 6 6 6 6 6 5 6 5
10 10 10 10 9 9 9 9 8 8 8 8 8 8 8 8 7 7 7 7 7 7 7 7 7 7 7 7 7 7 6 6 6 6 6 6 6 6 5 5 5 5 5
10 10 10 10 10 9 9 9 9 8 8 8 8 8 8 8 8 7 7 7 7 7 7 6 7 7 6 6 6 6 6 6 6 6 6 5 5 5 5 6 6 5 5
10 10 10 10 10 10 10 9 9 8 8 8 7 7 7 8 8 7 7 7 7 6 6 6 6 7 6 6 6 6 6 5 6 6 5 5 5 5 5 5 5 5 5
10 9 10 9 10 10 10 9 9 8 8 7 7 7 8 7 7 7 7 6 6 6 6 6 6 6 6 5 5 4 5 5 5 5 5 5 5 5 5 5 4 4 4
10 10 9 9 9 10 9 9 9 8 8 8 7 7 7 7 6 6 6 6 6 6 6 6 5 5 5 4 4 4 4 4 4 4 4 4 5 5 4 4 4 3 3
10 9 9 9 9 9 9 9 9 8 8 7 7 7 7 6 6 7 6 6 6 6 6 4 4 4 5 4 5 5 4 4 4 4 4 4 4 3 3 3 3 3 3
10 10 9 9 9 9 9 9 9 8 8 8 7 7 7 6 6 6 6 6 7 7 6 6 6 6 5 5 4 4 4 4 3 3 3 3 3 3 3 2 2 3 3
Height
3169 3171 3173 3174 3175 3176 3177 3177 3179 3181 3182 3183 3184 3184 3184 3185 3185 3184 3184 3184 3184 3184 3184 3185 3184 3185 3185 3185 3185 3185 3185 3184 3184 3183 3182 3182 3181 3181 3180 3179 3178 3176 3176
3168 3170 3172 3174 3175 3176 3178 3177 3179 3181 3182 3184 3186 3185 3185 3186 3186 3186 3186 3185 3185 3185 3185 3185 3185 3185 3185 3185 3185 3185 3185 3184 3184 3184 3183 3182 3182 3181 3180 3180 3179 3177 3176
3166 3169 3171 3173 3175 3176 3178 3178 3180 3181 3183 3185 3186 3186 3186 3187 3187 3187 3187 3186 3186 3186 3186 3186 3185 3185 3185 3185 3185 3184 3184 3183 3183 3183 3183 3183 3182 3181 3181 3180 3179 3178 3177
3165 3166 3170 3173 3175 3176 3177 3179 3180 3182 3183 3185 3187 3187 3187 3187 3187 3187 3187 3187 3187 3187 3187 3186 3186 3186 3185 3185 3185 3185 3184 3184 3184 3183 3183 3183 3182 3181 3180 3179 3179 3178 3178
3162 3164 3168 3171 3174 3176 3177 3179 3181 3182 3184 3185 3186 3187 3188 3188 3188 3188 3188 3188 3188 3188 3187 3187 3187 3186 3186 3186 3186 3186 3186 3185 3185 3184 3184 3183 3183 3182 3181 3179 3178 3178 3177
3159 3163 3167 3170 3172 3175 3177 3179 3181 3183 3184 3185 3186 3187 3188 3189 3189 3188 3188 3189 3189 3189 3189 3188 3188 3187 3187 3187 3187 3187 3187 3186 3186 3185 3185 3185 3184 3183 3182 3180 3179 3178 3178
3157 3161 3164 3168 3171 3174 3177 3179 3181 3183 3184 3185 3185 3187 3188 3188 3189 3188 3189 3189 3189 3190 3189 3189 3189 3189 3189 3188 3188 3188 3187 3187 3186 3186 3185 3185 3185 3183 3181 3180 3180 3179 3178
3157 3160 3164 3166 3170 3173 3175 3177 3180 3182 3183 3183 3185 3187 3187 3187 3188 3189 3189 3190 3190 3190 3189 3190 3189 3189 3189 3189 3188 3188 3188 3187 3187 3186 3186 3185 3185 3184 3182 3181 3180 3179 3179
3157 3159 3162 3165 3168 3170 3173 3175 3177 3180 3181 3182 3184 3186 3186 3187 3188 3189 3189 3190 3190 3190 3190 3190 3190 3190 3189 3189 3189 3189 3188 3188 3187 3187 3186 3186 3185 3184 3183 3182 3182 3180 3180
3155 3157 3159 3163 3166 3168 3170 3173 3175 3177 3179 3181 3182 3184 3185 3185 3186 3188 3188 3189 3189 3189 3189 3190 3191 3190 3189 3190 3190 3189 3189 3188 3188 3187 3186 3186 3185 3185 3184 3183 3181 3180 3180
3153 3154 3156 3159 3162 3166 3168 3171 3173 3175 3177 3179 3179 3182 3184 3184 3184 3186 3187 3187 3187 3187 3187 3189 3190 3189 3189 3189 3190 3189 3189 3189 3188 3188 3187 3186 3185 3185 3184 3183 3182 3182 3181
3148 3151 3153 3156 3159 3163 3166 3169 3171 3172 3175 3177 3178 3180 3181 3182 3183 3183 3184 3184 3184 3185 3185 3186 3187 3187 3187 3188 3188 3188 3188 3187 3187 3187 3186 3185 3185 3184 3184 3183 3182 3181 3180
3146 3148 3152 3154 3156 3160 3163 3166 3168 3170 3172 3174 3175 3178 3179 3179 3180 3181 3181 3182 3182 3182 3183 3184 3184 3185 3185 3185 3185 3185 3185 3185 3185 3185 3184 3184 3183 3182 3182 3181 3181 3181 3180
3144 3146 3148 3151 3154 3157 3160 3162 3166 3166 3168 3170 3172 3174 3175 3176 3177 3178 3178 3179 3179 3180 3181 3182 3182 3182 3182 3182 3182 3182 3182 3182 3183 3183 3182 3182 3182 3181 3180 3179 3179 3178 3178
3142 3144 3146 3149 3151 3155 3157 3159 3162 3163 3165 3167 3168 3170 3171 3173 3174 3174 3176 3177 3177 3178 3179 3180 3180 3180 3180 3180 3180 3180 3180 3180 3180 3180 3179 3180 3179 3179 3178 3178 3177 3176 3175
3140 3142 3144 3146 3149 3151 3153 3156 3159 3160 3162 3163 3165 3167 3168 3169 3171 3172 3173 3174 3174 3175 3176 3176 3177 3177 3178 3178 3178 3178 3177 3177 3177 3177 3176 3176 3176 3175 3175 3174 3173 3172 3172
3137 3138 3141 3143 3145 3147 3150 3151 3154 3156 3158 3159 3162 3163 3164 3166 3168 3169 3170 3171 3171 3171 3172 3173 3174 3174 3175 3175 3175 3175 3175 3174 3174 3173 3174 3173 3173 3173 3171 3170 3169 3168 3168
3132 3134 3136 3138 3141 3144 3145 3147 3150 3152 3153 3156 3158 3159 3160 3162 3163 3165 3166 3167 3167 3167 3168 3169 3170 3171 3171 3171 3171 3171 3171 3171 3170 3169 3169 3169 3169 3168 3167 3167 3165 3164 3163
3126 3128 3131 3133 3136 3138 3140 3142 3145 3147 3149 3152 3153 3155 3157 3158 3160 3161 3162 3163 3163 3164 3165 3166 3167 3167 3167 3168 3168 3167 3167 3166 3165 3164 3164 3164 3163 3163 3162 3160 3160 3159 3158
3119 3122 3124 3127 3130 3133 3135 3137 3140 3142 3144 3147 3148 3150 3152 3153 3155 3156 3158 3158 3160 3161 3162 3163 3163 3163 3163 3163 3163 3163 3162 3161 3160 3160 3160 3159 3158 3157 3156 3155 3154 3154 3153
3112 3114 3117 3120 3123 3126 3129 3133 3135 3137 3140 3142 3144 3146 3147 3149 3150 3151 3152 3153 3155 3156 3157 3158 3158 3159 3159 3159 3158 3159 3158 3158 3157 3155 3154 3153 3153 3152 3151 3150 3149 3147 3145
3104 3107 3110 3114 3116 3120 3123 3127 3129 3132 3134 3136 3139 3141 3143 3145 3146 3147 3147 3148 3150 3150 3151 3152 3152 3152 3152 3152 3153 3152 3153 3153 3151 3151 3150 3148 3147 3146 3144 3143 3141 3140 3138
3092 3097 3101 3105 3109 3114 3117 3120 3123 3126 3129 3131 3134 3136 3137 3139 3141 3142 3142 3143 3144 3145 3145 3145 3146 3146 3145 3146 3145 3146 3145 3146 3144 3144 3144 3143 3142 3142 3138 3136 3134 3132 3128
3082 3086 3092 3097 3101 3105 3109 3113 3117 3121 3124 3127 3129 3131 3132 3133 3134 3136 3136 3137 3138 3138 3139 3139 3139 3140 3139 3139 3139 3138 3139 3139 3138 3138 3137 3133 3131 3133 3129 3129 3124 3121 3118
3073 3076 3080 3087 3091 3095 3100 3106 3110 3114 3117 3119 3121 3123 3126 3127 3129 3130 3131 3131 3131 3132 3132 3133 3133 3133 3133 3133 3133 3132 3132 3131 3130 3127 3128 3128 3123 3120 3118 3116 3115 3111 3108
3061 3066 3070 3074 3080 3085 3092 3097 3101 3107 3108 3111 3114 3116 3119 3121 3122 3123 3124 3125 3125 3125 3126 3126 3126 3127 3127 3127 3127 3127 3126 3125 3123 3119 3116 3114 3113 3115 3111 3109 3107 3104 3100
Wind_Speed
22 18 17 15 15 15 16 17 14 12 12 11 11 13 14 13 13 13 13 12 10 10 8 8 8 7 7 6 6 6 7 7 7 7 7 7 7 8 8 8 8 9 9
22 20 18 16 16 16 14 16 14 12 11 9 10 11 12 13 12 12 12 11 11 9 8 7 7 7 6 5 5 6 7 7 7 7 7 7 7 7 7 7 8 9 9
20 21 19 17 16 16 14 15 13 11 10 9 8 9 10 11 11 11 10 10 10 10 8 8 8 7 6 6 6 6 5 6 6 7 7 7 7 6 6 6 6 7 8
15 24 21 18 15 15 14 14 13 11 9 8 7 7 8 9 10 10 9 8 9 9 9 9 9 8 7 6 6 5 4 5 5 6 6 5 6 6 4 5 5 5 7
15 26 22 19 16 14 13 14 12 11 9 7 5 5 6 6 7 8 8 7 7 8 9 10 10 10 9 7 6 5 4 5 5 5 6 4 5 4 4 3 4 4 4
17 27 23 20 16 14 13 13 12 11 10 9 6 5 5 5 4 5 6 5 5 6 8 9 10 10 9 8 7 6 6 6 6 6 5 4 5 4 5 2 2 2 3
17 27 25 21 18 16 13 13 12 11 11 10 8 8 6 4 3 2 2 2 3 3 6 7 8 9 9 9 8 6 6 6 5 5 4 5 5 6 6 5 2 0 1
17 22 24 23 19 17 15 14 13 12 11 11 9 10 8 6 4 3 2 1 1 2 2 3 5 6 8 8 8 7 6 6 5 5 5 4 3 5 5 5 4 2 1
14 21 24 23 22 21 19 17 15 13 13 12 10 10 9 7 5 4 4 4 3 3 2 2 2 3 5 5 5 6 6 6 6 6 6 5 5 5 6 6 6 5 3
12 18 23 25 24 23 21 19 17 15 15 13 11 10 10 8 6 6 6 6 6 5 5 5 4 2 1 2 3 4 4 5 5 5 6 6 6 6 6 6 5 4 4
19 19 22 25 28 25 23 20 19 17 16 15 12 11 11 9 8 8 8 7 7 7 7 8 7 6 4 3 3 3 4 3 3 3 4 4 4 5 6 5 5 6 5
17 21 22 22 24 25 24 23 19 17 16 14 12 12 12 11 10 10 9 8 9 10 10 10 10 10 9 7 7 7 6 7 6 6 6 5 5 5 5 5 5 5 5
10 17 23 21 23 25 26 22 20 17 15 15 14 15 15 13 12 12 11 11 10 12 13 13 13 12 12 11 11 11 11 10 11 10 10 10 10 9 8 7 7 7 7
12 14 20 22 24 26 25 21 20 17 17 17 16 16 16 14 14 14 14 14 12 14 15 16 16 15 14 14 13 13 13 14 15 15 15 14 14 14 14 14 12 11 10
16 16 19 21 23 24 23 20 21 19 18 17 17 16 16 16 17 16 16 16 15 16 17 17 17 17 17 16 15 15 14 15 16 17 18 18 17 18 18 19 18 17 16
18 20 20 21 23 24 23 21 21 19 18 17 17 17 17 18 18 18 18 18 17 18 18 18 18 18 17 17 16 16 15 15 16 17 18 19 19 19 19 20 21 21 21
21 21 22 23 25 26 24 24 23 21 20 19 20 20 19 19 19 19 19 20 19 19 20 20 19 18 18 17 17 18 18 17 18 19 20 21 21 21 22 22 23 23 24
26 25 24 24 26 27 26 25 23 22 21 21 23 21 20 20 20 20 19 20 19 18 17 17 17 17 17 17 16 17 17 17 18 19 20 21 21 21 22 24 25 25 26
27 29 27 27 26 29 29 26 24 23 22 22 23 22 23 23 23 21 21 21 20 19 18 18 18 18 19 18 18 19 20 19 20 21 21 20 20 21 23 25 24 25 25
33 34 32 30 28 31 32 29 26 25 25 25 23 21 19 22 25 24 23 22 21 22 21 21 22 22 23 22 22 21 21 23 24 24 24 24 25 24 26 26 27 29 29
36 38 37 34 32 32 32 30 27 26 26 27 25 22 20 17 18 22 23 23 23 25 25 25 26 26 23 23 25 24 25 25 25 25 25 26 25 25 26 27 28 29 32
43 42 42 39 38 35 33 32 29 29 25 26 27 23 23 21 20 18 18 21 24 27 29 29 29 27 25 25 25 27 27 25 25 22 21 23 25 27 31 32 34 35 37
43 46 45 44 41 40 36 37 35 34 29 27 27 26 25 24 23 22 20 23 27 25 25 27 28 27 28 28 28 29 27 23 25 26 27 29 29 31 35 38 40 39 40
35 36 46 47 47 45 41 40 39 35 31 29 29 29 28 26 26 25 24 26 25 25 26 27 27 26 27 25 33 26 23 25 28 31 32 37 39 37 40 39 41 41 41
37 37 38 48 51 50 45 42 42 41 36 33 33 32 30 29 28 27 28 30 29 26 29 20 29 29 31 30 26 26 28 30 32 37 37 39 43 44 44 44 41 42 41
43 40 40 48 52 54 50 45 45 42 39 36 35 34 33 32 28 29 31 32 30 29 28 27 28 26 26 26 26 28 30 32 35 40 43 45 45 41 41 40 39 41 43
Wind_Direction
206 188 175 158 145 142 141 133 128 128 120 117 108 100 91 85 81 79 77 75 75 74 72 71 73 72 74 77 79 78 78 75 72 73 83 84 76 65 52 44 40 45 47
216 200 184 172 161 152 147 136 138 137 129 126 120 107 101 90 84 82 80 80 76 76 77 78 77 74 70 67 66 64 64 64 63 60 66 71 65 57 54 47 42 43 49
208 210 194 184 173 160 156 145 148 146 142 137 133 120 108 100 89 85 82 79 81 79 82 83 80 79 75 68 64 63 64 65 64 69 66 57 55 46 49 51 47 50 56
223 206 201 193 183 173 162 156 157 154 154 153 147 133 119 109 99 89 81 75 83 84 84 80 79 78 76 73 73 76 74 73 70 75 72 85 68 50 65 70 61 52 55
243 205 201 198 191 183 173 169 166 165 168 171 167 152 129 110 107 104 89 72 69 78 78 76 75 75 72 70 70 73 68 69 70 68 65 67 13 39 40 74 83 78 68
226 199 198 200 196 192 188 181 179 180 182 188 191 194 171 151 132 115 98 79 61 70 70 69 69 74 72 68 63 59 54 52 62 65 58 42 32 14 13 29 81 84 80
210 195 197 200 200 199 199 196 193 198 198 201 202 216 210 194 182 149 114 71 47 52 71 70 68 72 75 75 73 66 59 54 54 63 64 60 12 19 17 19 360 77 133
202 206 202 202 201 207 207 205 209 210 211 215 213 225 225 221 222 232 264 292 320 3 48 64 72 67 69 70 70 66 57 50 45 43 45 51 20 28 28 30 25 346 267
215 210 215 213 208 204 211 208 211 216 220 223 221 229 234 235 244 255 269 278 282 296 326 342 16 55 54 52 57 62 61 52 45 39 32 25 18 19 28 26 15 16 354
230 225 213 216 216 215 214 214 216 218 227 226 224 234 235 236 248 260 262 272 280 282 294 297 298 305 5 5 9 20 36 39 40 37 31 27 24 18 14 13 20 23 15
251 236 225 214 218 216 217 221 218 219 226 228 225 236 242 240 241 249 258 265 274 277 276 276 278 278 279 284 294 310 323 334 339 358 0 12 14 8 12 13 3 353 348
238 227 209 207 214 215 216 221 221 223 229 234 235 236 239 240 241 247 250 256 267 274 275 274 272 272 274 272 276 279 282 291 295 298 300 310 319 328 331 345 346 336 327
217 219 215 216 211 217 215 216 222 222 227 230 229 232 235 236 240 246 253 258 267 273 275 272 269 271 273 273 270 271 274 273 277 282 287 292 296 297 303 314 316 317 313
221 214 213 213 208 207 207 207 217 218 220 223 223 228 233 236 240 243 249 253 261 268 270 269 269 267 266 267 270 270 270 274 277 280 281 284 288 294 298 299 297 296 297
209 210 203 202 204 203 204 201 210 211 214 217 221 225 233 238 242 244 251 256 260 265 268 271 271 270 270 270 271 274 276 276 278 280 283 285 288 289 290 291 292 289 288
215 216 214 212 207 202 200 200 205 208 211 217 223 226 232 239 243 247 251 256 260 265 268 270 273 276 276 277 277 279 279 280 280 278 279 281 283 285 286 284 285 286 284
223 223 217 220 218 210 203 202 205 206 212 217 224 227 232 239 245 249 253 257 261 266 270 273 274 275 276 276 279 280 280 281 281 281 281 282 285 286 286 285 283 282 281
223 222 223 223 223 216 210 209 209 211 219 224 230 233 234 238 241 247 253 258 261 265 267 270 271 266 263 265 267 272 279 281 283 282 281 283 283 283 283 283 284 284 282
227 225 225 226 227 221 217 215 217 218 219 224 230 236 241 243 244 245 251 257 262 264 266 269 269 266 269 268 270 274 280 283 284 285 285 280 276 277 278 278 277 279 280
226 225 224 226 229 225 221 218 221 222 223 227 229 233 237 246 247 247 249 254 259 264 265 268 271 269 266 269 268 271 275 279 283 282 280 283 279 282 282 284 285 279 279
230 226 228 226 226 224 227 225 230 228 231 235 234 238 237 244 247 247 251 255 257 260 262 265 268 269 267 266 266 268 276 276 277 278 281 286 290 290 288 289 289 287 286
239 232 228 226 226 219 222 225 230 229 234 231 229 237 240 244 247 251 258 260 261 263 262 262 266 266 263 264 270 275 282 284 281 286 286 289 288 290 289 290 289 289 289
242 237 230 226 226 223 223 225 229 230 234 234 233 239 246 250 252 255 266 272 262 259 260 260 262 264 268 271 279 282 285 285 288 289 289 286 289 288 289 291 289 288 285
247 245 234 229 225 225 225 228 232 233 240 244 243 246 251 255 259 259 267 278 257 259 264 269 266 272 279 276 280 280 280 285 289 291 293 296 294 293 290 289 289 289 287
247 244 238 231 227 225 225 230 233 235 239 244 243 244 249 255 258 263 267 275 262 263 266 265 267 260 276 272 277 283 286 290 293 295 295 293 295 296 294 295 295 293 292
239 241 241 230 229 225 224 229 233 236 241 248 245 243 245 254 261 265 267 265 260 262 265 265 266 267 268 269 276 281 285 290 294 296 296 296 294 292 294 293 292 290 289